Weather in Tampere

Finland     61˚29′53″N   23˚47′13″E
temp.,
°C
wind,
m/s
gust,
m/s
humid.,
%
clouds,
%
prec.,
mm/h
press.,
hPa
HPBL,
m
27 november, fri
fri2723:00−1˚nnw597645 0.0 10091007
02:00−1˚n587872 0.0 1010897
05:00n4982100 0.0 1010993
08:00n4882100 0.1 1012905
11:00nne488097 0.0 1014745
14:00nne478099 0.0 1017690
17:00−2˚n388577 0.0 1018355
20:00−2˚nne269139 0.0 1021203
28 november, sat
sat2823:00−2˚nne259422 0.0 1023156
02:00−2˚nne239419 0.0 102498
05:00ne358647 0.0 1026481
08:00−1˚ne358574 0.0 1027534
11:00ene2581100 0.0 1028481
14:00ene128491 0.0 1029155
17:00−1˚ne139077 0.0 1030129
20:00e248688 0.0 1031384
29 november, sun
sun2923:00−1˚ese248996 0.0 1031262
02:00−1˚ese128787 0.0 1031129
05:00−1˚se2383100 0.0 1030426
08:00−1˚ese2483100 0.1 1030493
11:00−1˚se3579100 0.0 1030593
14:00se1377100 0.1 1030480
17:00−1˚ese2482100 0.0 1029346
20:00−2˚se269398 0.0 1028306
30 november, mon
mon3023:00−2˚se259371 0.0 1027267
02:00−2˚se239363 0.0 1026123
05:00−3˚ese259675 0.0 1024197
08:00−3˚ese239367 0.0 1023105
11:00−2˚ese148955 0.0 1021165
14:00−2˚se128763 0.0 101941
17:00−2˚se129596 0.0 101746
20:00−2˚se229898 0.1 101676
1 december, tue
tue123:00−2˚sse239998 0.0 101593
02:00−2˚sse249898 0.0 1014129
05:00−1˚sse3897100 0.0 1015295
08:00+1˚sse3898100 0.9 1016297
11:00+2˚sse3798100 0.7 1017232
14:00+2˚s3995100 1.4 1019368
17:00+3˚sse399699 0.4 1021347
20:00+3˚sse399599 0.6 1024343